Content
SEND FEEDBACK

Daily
Averages
Monthly
Summary
United States of America

PYGA BEACH, GUAM


Home > North America > United States > Guam
Elevation: 20 feet     Latitude: 13 17N     Longitude: 144 39E

WEATHER
 
SELECT A DAY
Number of Records: 351,545;   Date Range: 1/1/95 - 10/19/14
 
SHARE

PRINT THIS DATA

[ ← Previous Day ]
WEATHER ALMANAC - MAY 17, 2013
[ Next Day → ]
[ °C ]   °F
Weather ElementAverageHighLow
Temperature81.5 °F86.4 °F (12:55 pm)78.8 °F (12:35 am)
Dewpoint75.4 °F77 °F (9:10 am)72.7 °F (10:55 pm)
Humidity81.9 %89 % (12:35 am)70 % (12:26 pm)
Barometer29.89 in29.93 in (9:00 am)29.83 in (3:39 pm)
Wind Speed12.2 mph17.3 mph (8:55 am)
Wind Gust23 mph (10:14 am)
Weather ElementAverage
Visibility9.6 mi
Wind DirectionENE (74 °)

Weather ElementTotal
Precipitation0.05 in
Cooling Degree Days17.6 (Base 65)
Growing Degree Days32.6 (Base 50)
Averaged from 93 records on May 17, 2013
WEATHER CONDITIONS BREAKOUT
WIND DIRECTION BREAKOUT
WEATHER BY HOUR - MAY 17, 2013
[ °C ]   °F
Local TimeTemperatureDewpointHumidityBarometerVisibilityWind DirectionWind SpeedGust SpeedPrecipitationEventsConditions
12:23 AM80.6 °F75.2 °F84 %29.92 in10.0 miENE (60°)10.4 mphScattered Clouds
12:30 AM80.6 °F75.2 °F84 %29.92 in10.0 miENE (60°)8.1 mphMostly Cloudy
12:35 AM78.8 °F75.2 °F89 %29.92 in10.0 miENE (70°)8.1 mphMostly Cloudy
12:55 AM79.9 °F75.9 °F88 %29.91 in10.0 miENE (60°)9.2 mphMostly Cloudy
12:57 AM80.6 °F75.2 °F84 %29.91 in10.0 miENE (70°)9.2 mphMostly Cloudy
1:01 AM80.6 °F75.2 °F84 %29.91 in10.0 miENE (70°)11.5 mphMostly Cloudy
1:21 AM80.6 °F75.2 °F84 %29.90 in10.0 miEast (80°)10.4 mphMostly Cloudy
1:25 AM80.6 °F75.2 °F84 %29.90 in10.0 miEast (80°)11.5 mphScattered Clouds
1:51 AM80.6 °F75.2 °F84 %29.89 in10.0 miENE (70°)10.4 mphMostly Cloudy
1:52 AM80.6 °F75.2 °F84 %29.89 in10.0 miENE (70°)11.5 mphMostly Cloudy
1:53 AM80.6 °F75.2 °F84 %29.89 in10.0 miENE (70°)11.5 mphMostly Cloudy
1:55 AM79.9 °F75.4 °F86 %29.89 in10.0 miEast (80°)10.4 mphMostly Cloudy
1:57 AM80.6 °F75.2 °F84 %29.89 in10.0 miENE (70°)12.7 mphMostly Cloudy
2:05 AM80.6 °F75.2 °F84 %29.89 in10.0 miENE (70°)11.5 mphMostly Cloudy
2:26 AM80.6 °F75.2 °F84 %29.88 in10.0 miEast (80°)12.7 mphMostly Cloudy
2:29 AM80.6 °F75.2 °F84 %29.88 in10.0 miEast (80°)11.5 mphMostly Cloudy
2:33 AM78.8 °F75.2 °F89 %29.88 in10.0 miEast (80°)9.2 mphScattered Clouds
2:55 AM78.8 °F74.7 °F87 %29.88 in10.0 miEast (80°)8.1 mphClear
3:31 AM80.6 °F75.2 °F84 %29.87 in10.0 miENE (70°)10.4 mphMostly Cloudy
3:38 AM78.8 °F75.2 °F89 %29.87 in10.0 miEast (80°)11.5 mphScattered Clouds
3:40 AM78.8 °F75.2 °F89 %29.87 in10.0 miENE (70°)11.5 mphMostly Cloudy
3:49 AM78.8 °F75.2 °F89 %29.88 in10.0 miENE (70°)9.2 mphScattered Clouds
3:54 AM78.8 °F75.2 °F89 %29.87 in10.0 miENE (70°)10.4 mphMostly Cloudy
3:55 AM79.2 °F75.4 °F88 %29.87 in10.0 miENE (70°)10.4 mphMostly Cloudy
4:03 AM78.8 °F75.2 °F89 %29.88 in10.0 miENE (70°)11.5 mphMostly Cloudy
4:07 AM78.8 °F75.2 °F89 %29.88 in10.0 miENE (70°)10.4 mphMostly Cloudy
4:08 AM78.8 °F75.2 °F89 %29.88 in10.0 miENE (70°)10.4 mphMostly Cloudy
4:09 AM78.8 °F75.2 °F89 %29.88 in10.0 miENE (70°)11.5 mphMostly Cloudy
4:11 AM78.8 °F75.2 °F89 %29.88 in10.0 miEast (80°)12.7 mphMostly Cloudy
4:13 AM78.8 °F75.2 °F89 %29.88 in10.0 miEast (80°)12.7 mphMostly Cloudy
4:21 AM78.8 °F73.4 °F83 %29.88 in10.0 miEast (90°)12.7 mphMostly Cloudy
4:55 AM79.0 °F74.1 °F85 %29.88 in10.0 miENE (70°)10.4 mphScattered Clouds
5:27 AM78.8 °F75.2 °F89 %29.88 in10.0 miENE (70°)9.2 mphLight Drizzle
5:36 AM78.8 °F75.2 °F89 %29.88 in10.0 miENE (70°)9.2 mphPartly Cloudy
5:55 AM79.2 °F75.4 °F88 %29.88 in10.0 miENE (60°)6.9 mph0.00 inScattered Clouds
5:59 AM78.8 °F75.2 °F89 %29.88 in10.0 miENE (60°)9.2 mphMostly Cloudy
6:00 AM78.8 °F75.2 °F89 %29.88 in10.0 miENE (60°)9.2 mphMostly Cloudy
6:13 AM78.8 °F75.2 °F89 %29.88 in10.0 miENE (60°)10.4 mphMostly Cloudy
6:24 AM80.6 °F75.2 °F84 %29.89 in10.0 miENE (70°)12.7 mphMostly Cloudy
6:27 AM80.6 °F75.2 °F84 %29.89 in10.0 miENE (70°)15.0 mphMostly Cloudy
6:28 AM80.6 °F75.2 °F84 %29.89 in10.0 miEast (80°)15.0 mphScattered Clouds
6:55 AM81.0 °F75.0 °F82 %29.90 in10.0 miENE (70°)12.7 mphPartly Cloudy
7:18 AM80.6 °F75.2 °F84 %29.91 in10.0 miENE (70°)11.5 mphMostly Cloudy
7:32 AM82.4 °F75.2 °F79 %29.90 in10.0 miENE (60°)10.4 mphScattered Clouds
7:47 AM82.4 °F75.2 °F79 %29.91 in10.0 miENE (60°)11.5 mphMostly Cloudy
7:50 AM82.4 °F75.2 °F79 %29.91 in10.0 miENE (60°)12.7 mphScattered Clouds
7:55 AM82.6 °F75.7 °F80 %29.91 in10.0 miNE (50°)12.7 mphScattered Clouds
8:44 AM82.4 °F75.2 °F79 %29.92 in10.0 miNE (50°)13.8 mphMostly Cloudy
8:47 AM82.4 °F75.2 °F79 %29.92 in10.0 miENE (60°)16.1 mphScattered Clouds
8:52 AM82.4 °F75.2 °F79 %29.92 in10.0 miNE (50°)15.0 mphMostly Cloudy
8:55 AM82.6 °F75.4 °F79 %29.92 in10.0 miENE (70°)17.3 mphMostly Cloudy
9:00 AM82.4 °F75.2 °F79 %29.93 in2.5 miEast (100°)15.0 mphRainRain
9:01 AM82.4 °F75.2 °F79 %29.93 in1.8 miEast (90°)13.8 mphRainRain
9:10 AM80.6 °F77.0 °F89 %29.93 in2.5 miESE (110°)8.1 mphRainLight Rain
9:11 AM80.6 °F77.0 °F89 %29.93 in3.0 miESE (120°)9.2 mphRainLight Rain
9:16 AM80.6 °F77.0 °F89 %29.93 in10.0 miEast (100°)6.9 mphMostly Cloudy
9:26 AM82.4 °F77.0 °F84 %29.92 in10.0 miEast (80°)16.1 mphMostly Cloudy
9:55 AM81.7 °F75.7 °F82 %29.92 in10.0 miEast (80°)13.8 mph0.05 inMostly Cloudy
10:14 AM82.4 °F77.0 °F84 %29.91 in10.0 miENE (60°)16.1 mph23.0 mphMostly Cloudy
10:18 AM82.4 °F77.0 °F84 %29.91 in6.0 miEast (80°)16.1 mph23.0 mphRainLight Rain
10:31 AM80.6 °F77.0 °F89 %29.91 in10.0 miENE (60°)15.0 mphMostly Cloudy
10:43 AM84.2 °F77.0 °F79 %29.91 in10.0 miEast (80°)13.8 mphScattered Clouds
10:53 AM84.2 °F77.0 °F79 %29.90 in10.0 miEast (80°)16.1 mphMostly Cloudy
10:55 AM83.8 °F76.6 °F79 %29.90 in10.0 miEast (80°)16.1 mph0.00 inScattered Clouds
11:02 AM84.2 °F77.0 °F79 %29.90 in10.0 miENE (70°)16.1 mphMostly Cloudy
11:04 AM84.2 °F77.0 °F79 %29.90 in10.0 miENE (70°)13.8 mphScattered Clouds
11:08 AM84.2 °F77.0 °F79 %29.90 in10.0 miENE (70°)15.0 mphMostly Cloudy
11:11 AM84.2 °F77.0 °F79 %29.90 in10.0 miENE (70°)15.0 mphMostly Cloudy
11:13 AM84.2 °F77.0 °F79 %29.90 in10.0 miENE (70°)17.3 mphMostly Cloudy
11:17 AM84.2 °F77.0 °F79 %29.90 in10.0 miENE (70°)16.1 mphMostly Cloudy
11:20 AM84.2 °F77.0 °F79 %29.90 in10.0 miENE (70°)15.0 mphMostly Cloudy
11:39 AM84.2 °F75.2 °F74 %29.89 in10.0 miEast (80°)13.8 mphMostly Cloudy
11:55 AM85.8 °F76.5 °F73 %29.89 in10.0 miENE (70°)15.0 mph20.7 mphScattered Clouds
12:26 PM86.0 °F75.2 °F70 %29.88 in10.0 miEast (90°)15.0 mphMostly Cloudy
12:53 PM86.0 °F75.2 °F70 %29.87 in10.0 miEast (80°)13.8 mphMostly Cloudy
12:55 PM86.4 °F75.7 °F70 %29.87 in10.0 miENE (70°)15.0 mphMostly Cloudy
1:39 PM86.0 °F75.2 °F70 %29.86 in10.0 miEast (80°)12.7 mphMostly Cloudy
1:55 PM85.1 °F75.7 °F73 %29.85 in10.0 miEast (80°)13.8 mphMostly Cloudy
2:17 PM86.0 °F75.2 °F70 %29.84 in10.0 miENE (70°)12.7 mphScattered Clouds
2:18 PM86.0 °F75.2 °F70 %29.84 in10.0 miENE (60°)15.0 mphMostly Cloudy
2:29 PM84.2 °F75.2 °F74 %29.84 in10.0 miENE (70°)12.7 mphScattered Clouds
2:32 PM86.0 °F75.2 °F70 %29.84 in10.0 miEast (90°)11.5 mphMostly Cloudy
2:55 PM84.2 °F75.2 °F74 %29.84 in10.0 miEast (90°)10.4 mphMostly Cloudy
3:39 PM84.2 °F73.4 °F70 %29.83 in10.0 miEast (90°)10.4 mphScattered Clouds
3:55 PM84.0 °F73.9 °F72 %29.83 in10.0 miEast (90°)12.7 mphPartly Cloudy
4:55 PM83.8 °F74.1 °F72 %29.84 in10.0 miENE (70°)10.4 mphPartly Cloudy
5:55 PM82.8 °F73.4 °F73 %29.86 in10.0 miEast (80°)12.7 mphClear
6:55 PM81.0 °F74.3 °F80 %29.88 in10.0 miEast (80°)10.4 mphScattered Clouds
7:55 PM80.4 °F74.7 °F83 %29.90 in10.0 miENE (70°)9.2 mphScattered Clouds
8:55 PM79.7 °F73.6 °F81 %29.91 in10.0 miENE (70°)11.5 mphClear
9:55 PM79.7 °F74.3 °F83 %29.93 in10.0 miEast (80°)11.5 mphPartly Cloudy
10:55 PM79.5 °F72.7 °F79 %29.92 in10.0 miEast (80°)12.7 mphClear
11:55 PM79.2 °F73.8 °F83 %29.91 in10.0 miEast (100°)9.2 mphClear
Hourly data recorded from PGUA, located miles away from Pyga Beach, Guam







STORIES FROM OUR PARTNERS